Flag for U.S.A. Weather past 2 weeks in Salem, Oregon, U.S.A.

Now
68 °F

Overcast.


Feels Like: 68 °F
Forecast: 61 / 73 °F
Wind: 6 mph from South

Location: McNary Field

Current Time: Sep 23, 2014 at 1:58:43 PM

Latest Report: Sep 23, 2014 at 12:56 PM


Visibility: 10 mi

Pressure: 29.83 "Hg

Humidity: 68%

Dew point: 57 °F

Location of SalemLocation

Historic Weather in Salem — Graph

°F

Salem temperature yesterday

Maximum temperature yesterday: 69 °F (at 2:03 PM)
Minimum temperature yesterday: 58 °F (at 3:56 AM)
Average temperature yesterday: 64 °F

Past Weeks' High & Low Weather Summary

 TemperatureHumidityPressure
High95 °F (Sep 20, 4:56 PM)97% (Sep 23, 3:56 AM)30.17 "Hg (Sep 23, 3:56 AM)
Low48 °F (Sep 14, 6:56 AM)12% (Sep 13, 5:56 PM)29.68 "Hg (Sep 17, 4:56 PM)
Average67 °F55%29.91 "Hg
* Reported Sep 8 12:56 PM — Sep 23 12:56 PM, Salem, Weather by CustomWeather, © 2014

Note: Actual official high and low records may vary slightly from our data, if they occured in-between our weather recording intervals... More about our weather records

Advertising

Salem weather history for previous 24 hours

 ConditionsComfort  
Time TempWeatherWind HumidityBarometerVisibility
12:56 PM
Sep 23
68 °FOvercast.6 mph68%29.83 "Hg10 mi
11:56 AM66 °FMostly cloudy.8 mph75%29.84 "Hg10 mi
10:56 AM64 °FBroken clouds.6 mph81%29.85 "Hg10 mi
9:56 AM62 °FBroken clouds.7 mph86%29.86 "Hg10 mi
8:56 AM59 °FCloudy.6 mph93%29.86 "Hg10 mi
7:56 AM58 °FPartly cloudy.3 mph93%29.85 "Hg10 mi
6:56 AM58 °FOvercast.6 mph93%29.84 "Hg7 mi
5:56 AM57 °FPassing clouds.No wind93%29.83 "Hg10 mi
4:56 AM58 °FPassing clouds.No wind93%29.85 "Hg10 mi
3:56 AM58 °FClear.No wind97%29.85 "Hg9 mi
2:56 AM60 °FClear.No wind90%29.86 "Hg10 mi
1:56 AM59 °FClear.No wind93%29.90 "Hg10 mi
12:56 AM58 °FClear.6 mph93%29.90 "Hg10 mi
11:56 PM
Sep 22
59 °FClear.6 mph93%29.91 "Hg10 mi
10:56 PM61 °FClear.No wind87%29.91 "Hg10 mi
9:56 PM63 °FPassing clouds.3 mph84%29.92 "Hg10 mi
8:56 PM64 °FLight rain. Passing clouds.5 mph81%29.91 "Hg10 mi
7:56 PM66 °FSunny.No wind70%29.91 "Hg10 mi
6:56 PM67 °FPassing clouds.5 mph66%29.92 "Hg10 mi
5:56 PM69 °FCloudy.No wind61%29.91 "Hg10 mi
4:56 PM69 °FBroken clouds.3 mph59%29.93 "Hg10 mi
3:56 PM69 °FCloudy.5 mph57%29.94 "Hg10 mi
2:56 PM69 °FBroken clouds.8 mph57%29.96 "Hg10 mi
2:03 PM69 °FBroken clouds.5 mph57%29.97 "Hg10 mi
1:56 PM68 °FPartly sunny.3 mph59%29.97 "Hg10 mi
Weather by CustomWeather, © 2014

See weather overviewHow to use our weather pages